| time (UTC) | temp F | wind direction | speed knots | gust knots | rain 1hr in | rain 24hr in | rain mn in | humidity % | barometer mb |
| 20260504193304 | 72 | 353 | 4.3 | 7.0 | 0.00 | 0.00 | 0.00 | 19 | 1010.4 |
| 20260504191804 | 72 | 287 | 5.2 | 11.3 | 0.00 | 0.00 | 0.00 | 19 | 1010.4 |
| 20260504191304 | 72 | 355 | 3.5 | 7.0 | 0.00 | 0.00 | 0.00 | 20 | 1010.4 |
| 20260504184803 | 72 | 314 | 5.2 | 10.4 | 0.00 | 0.00 | 0.00 | 20 | 1010.4 |
| 20260504182803 | 75 | 307 | 5.2 | 12.2 | 0.00 | 0.00 | 0.00 | 18 | 1010.4 |
| 20260504182304 | 76 | 329 | 6.1 | 13.0 | 0.00 | 0.00 | 0.00 | 20 | 1010.4 |
| 20260504181804 | 75 | 279 | 7.8 | 12.2 | 0.00 | 0.00 | 0.00 | 21 | 1010.4 |
| 20260504175804 | 73 | 276 | 8.7 | 15.6 | 0.00 | 0.00 | 0.00 | 22 | 1010.4 |
| 20260504175304 | 72 | 333 | 8.7 | 17.4 | 0.00 | 0.00 | 0.00 | 23 | 1010.4 |
| 20260504173304 | 71 | 302 | 6.1 | 13.0 | 0.00 | 0.00 | 0.00 | 24 | 1010.4 |
| 20260504172803 | 72 | 319 | 7.0 | 15.6 | 0.00 | 0.00 | 0.00 | 23 | 1010.4 |
| 20260504170803 | 71 | 286 | 7.8 | 17.4 | 0.00 | 0.00 | 0.00 | 24 | 1010.4 |
| 20260504160303 | 67 | 276 | 8.7 | 15.6 | 0.00 | 0.00 | 0.00 | 26 | 1010.4 |
| 20260504140805 | 55 | 171 | 0.9 | 2.6 | 0.00 | 0.00 | 0.00 | 40 | 1010.4 |
| 20260504130305 | 49 | 0 | 0.0 | 0.0 | 0.00 | 0.00 | 0.00 | 45 | 1010.4 |
| 20260504120304 | 44 | 169 | 0.0 | 0.9 | 0.00 | 0.00 | 0.00 | 54 | 1010.4 |
| 20260504110305 | 43 | 202 | 1.7 | 2.6 | 0.00 | 0.00 | 0.00 | 58 | 1010.4 |
| 20260504100305 | 45 | 202 | 0.9 | 1.7 | 0.00 | 0.00 | 0.00 | 53 | 1010.4 |
| 20260504081305 | 48 | 202 | 0.9 | 1.7 | 0.00 | 0.00 | 0.00 | 47 | 1010.4 |
| 20260504080305 | 48 | 202 | 0.9 | 1.7 | 0.00 | 0.00 | 0.00 | 45 | 1010.4 |
| 20260504045805 | 60 | 212 | 1.7 | 2.6 | 0.00 | 0.00 | 0.00 | 30 | 1010.4 |
| 20260504044805 | 62 | 229 | 1.7 | 2.6 | 0.00 | 0.00 | 0.00 | 28 | 1010.4 |
| 20260504043804 | 62 | 219 | 2.6 | 5.2 | 0.00 | 0.00 | 0.00 | 28 | 1010.4 |
| 20260504043305 | 62 | 206 | 2.6 | 4.3 | 0.00 | 0.00 | 0.00 | 28 | 1010.4 |
| 20260504042804 | 62 | 220 | 2.6 | 5.2 | 0.00 | 0.00 | 0.00 | 28 | 1010.4 |
| 20260504041304 | 63 | 209 | 2.6 | 5.2 | 0.00 | 0.00 | 0.00 | 28 | 1010.4 |
| 20260504040804 | 63 | 202 | 2.6 | 5.2 | 0.00 | 0.00 | 0.00 | 28 | 1010.4 |
| 20260504035805 | 63 | 207 | 2.6 | 5.2 | 0.00 | 0.00 | 0.00 | 28 | 1010.4 |
| 20260504034804 | 63 | 217 | 2.6 | 5.2 | 0.00 | 0.00 | 0.00 | 27 | 1010.4 |
| 20260504034305 | 62 | 211 | 2.6 | 5.2 | 0.00 | 0.00 | 0.00 | 28 | 1010.4 |
| 20260504033805 | 62 | 208 | 1.7 | 4.3 | 0.00 | 0.00 | 0.00 | 28 | 1010.4 |
| 20260504031804 | 63 | 204 | 3.5 | 7.0 | 0.00 | 0.00 | 0.00 | 28 | 1010.4 |
| 20260504031304 | 63 | 194 | 2.6 | 6.1 | 0.00 | 0.00 | 0.00 | 28 | 1010.4 |
| 20260504024805 | 64 | 230 | 4.3 | 6.1 | 0.00 | 0.00 | 0.00 | 26 | 1010.4 |
| 20260504024304 | 64 | 167 | 3.5 | 6.1 | 0.00 | 0.00 | 0.00 | 27 | 1010.4 |
| 20260504023804 | 64 | 197 | 2.6 | 7.0 | 0.00 | 0.00 | 0.00 | 27 | 1010.4 |
| 20260504022805 | 64 | 188 | 2.6 | 4.3 | 0.00 | 0.00 | 0.00 | 26 | 1010.4 |
| 20260504022305 | 64 | 197 | 3.5 | 6.1 | 0.00 | 0.00 | 0.00 | 26 | 1010.4 |
| 20260504021305 | 64 | 173 | 4.3 | 6.1 | 0.00 | 0.00 | 0.00 | 26 | 1010.4 |
| 20260504020805 | 64 | 199 | 2.6 | 4.3 | 0.00 | 0.00 | 0.00 | 26 | 1010.4 |
| 20260504020304 | 64 | 233 | 1.7 | 4.3 | 0.00 | 0.00 | 0.00 | 26 | 1010.4 |
| 20260504015805 | 65 | 219 | 0.9 | 1.7 | 0.00 | 0.00 | 0.00 | 25 | 1010.4 |
| 20260504015305 | 66 | 355 | 0.0 | 2.6 | 0.00 | 0.00 | 0.00 | 25 | 1010.4 |
| 20260504014804 | 66 | 331 | 1.7 | 2.6 | 0.00 | 0.00 | 0.00 | 25 | 1010.4 |
| 20260504014305 | 67 | 224 | 0.9 | 2.6 | 0.00 | 0.00 | 0.00 | 23 | 1010.4 |
| 20260504013805 | 67 | 236 | 1.7 | 6.1 | 0.00 | 0.00 | 0.00 | 22 | 1010.4 |
| 20260504013304 | 67 | 290 | 7.8 | 14.8 | 0.00 | 0.00 | 0.00 | 21 | 1010.4 |
| 20260504012305 | 67 | 318 | 6.1 | 10.4 | 0.00 | 0.00 | 0.00 | 22 | 1010.4 |
| 20260504010804 | 66 | 323 | 1.7 | 5.2 | 0.00 | 0.00 | 0.00 | 23 | 1010.4 |
| 20260504010304 | 66 | 341 | 2.6 | 6.1 | 0.00 | 0.00 | 0.00 | 25 | 1010.4 |
| 20260504005805 | 66 | 40 | 4.3 | 7.0 | 0.00 | 0.00 | 0.00 | 25 | 1010.4 |
| 20260504002305 | 67 | 347 | 6.1 | 12.2 | 0.00 | 0.00 | 0.00 | 26 | 1010.4 |
| 20260504001304 | 68 | 305 | 11.3 | 21.7 | 0.00 | 0.00 | 0.00 | 23 | 1010.4 |
| 20260504000804 | 68 | 260 | 2.6 | 4.3 | 0.00 | 0.00 | 0.00 | 22 | 1010.4 |
| 20260504000306 | 68 | 227 | 3.5 | 5.2 | 0.00 | 0.00 | 0.00 | 22 | 1010.4 |
| 20260503235804 | 68 | 249 | 1.7 | 2.6 | 0.00 | 0.00 | 0.00 | 22 | 1010.4 |
| 20260503234805 | 69 | 173 | 1.7 | 4.3 | 0.00 | 0.00 | 0.00 | 21 | 1010.4 |
| 20260503234305 | 70 | 3 | 0.0 | 0.9 | 0.00 | 0.00 | 0.00 | 21 | 1010.4 |
| 20260503232305 | 70 | 253 | 1.7 | 4.3 | 0.00 | 0.00 | 0.00 | 19 | 1010.4 |
| 20260503230804 | 69 | 355 | 2.6 | 4.3 | 0.00 | 0.00 | 0.00 | 20 | 1010.4 |
| 20260503225805 | 70 | 335 | 1.7 | 7.8 | 0.00 | 0.00 | 0.00 | 19 | 1010.4 |
| 20260503225305 | 70 | 335 | 4.3 | 10.4 | 0.00 | 0.00 | 0.00 | 18 | 1010.4 |
| 20260503224305 | 71 | 340 | 4.3 | 7.8 | 0.00 | 0.00 | 0.00 | 18 | 1010.4 |
| 20260503223304 | 71 | 289 | 6.1 | 10.4 | 0.00 | 0.00 | 0.00 | 17 | 1010.4 |
| 20260503222804 | 71 | 43 | 8.7 | 19.1 | 0.00 | 0.00 | 0.00 | 18 | 1010.4 |
| 20260503222305 | 72 | 339 | 6.1 | 11.3 | 0.00 | 0.00 | 0.00 | 17 | 1010.4 |
| 20260503221305 | 72 | 263 | 3.5 | 11.3 | 0.00 | 0.00 | 0.00 | 16 | 1010.4 |
| 20260503220304 | 72 | 265 | 9.6 | 17.4 | 0.00 | 0.00 | 0.00 | 15 | 1010.4 |
| 20260503215804 | 72 | 242 | 8.7 | 18.2 | 0.00 | 0.00 | 0.00 | 16 | 1010.4 |
| 20260503213304 | 73 | 185 | 8.7 | 15.6 | 0.00 | 0.00 | 0.00 | 16 | 1010.4 |
| 20260503212804 | 73 | 243 | 4.3 | 8.7 | 0.00 | 0.00 | 0.00 | 15 | 1010.4 |
| 20260503212305 | 73 | 245 | 2.6 | 4.3 | 0.00 | 0.00 | 0.00 | 15 | 1010.4 |
| 20260503210804 | 73 | 328 | 5.2 | 11.3 | 0.00 | 0.00 | 0.00 | 15 | 1010.4 |
| 20260503205805 | 73 | 309 | 6.1 | 10.4 | 0.00 | 0.00 | 0.00 | 15 | 1010.4 |
| 20260503205305 | 73 | 297 | 6.1 | 15.6 | 0.00 | 0.00 | 0.00 | 15 | 1010.4 |
| 20260503204304 | 76 | 320 | 5.2 | 11.3 | 0.00 | 0.00 | 0.00 | 14 | 1010.4 |
| 20260503203804 | 76 | 349 | 7.8 | 13.9 | 0.00 | 0.00 | 0.00 | 15 | 1010.4 |
| 20260503203305 | 76 | 326 | 5.2 | 13.0 | 0.00 | 0.00 | 0.00 | 14 | 1010.4 |
| 20260503200805 | 76 | 308 | 6.1 | 13.0 | 0.00 | 0.00 | 0.00 | 15 | 1010.4 |
| 20260503195805 | 75 | 321 | 5.2 | 10.4 | 0.00 | 0.00 | 0.00 | 14 | 1010.4 |
| 20260503194805 | 75 | 295 | 4.3 | 12.2 | 0.00 | 0.00 | 0.00 | 14 | 1010.4 |
| 20260503194304 | 74 | 355 | 7.8 | 11.3 | 0.00 | 0.00 | 0.00 | 15 | 1010.4 |